SAS214 ENCN-ENGM

Flight info

Callsign SAS214
Flight time 0h 37m
Altitude 35000
Route VAVET DCT PIPEX M609 RIPAM
Aircraft A319/M-SDE3FGHIRWY/LB1

Departure

Time 2026-05-07 17:33
Airport Kristiansand Airport (ENCN)

Arrival

Time 2026-05-07 18:11
Airport Oslo-Gardermoen International Airport (ENGM)
Time Latitude Longitude Altitude Speed Heading
2026-05-07 17:14 58.20248 8.07551 58 ft 0 kts 302°
2026-05-07 17:24 58.20245 8.07559 51 ft 2 kts 302°
2026-05-07 17:25 58.20235 8.07589 51 ft 3 kts 302°
2026-05-07 17:25 58.20225 8.07622 52 ft 3 kts 302°
2026-05-07 17:25 58.20219 8.07638 54 ft 0 kts 302°
2026-05-07 17:29 58.20220 8.07636 54 ft 1 kts 302°
2026-05-07 17:29 58.20238 8.07657 56 ft 9 kts 47°
2026-05-07 17:29 58.20316 8.07777 54 ft 18 kts 52°
2026-05-07 17:30 58.20399 8.07978 58 ft 19 kts 52°
2026-05-07 17:30 58.20466 8.08141 58 ft 13 kts 51°
2026-05-07 17:30 58.20454 8.08304 52 ft 15 kts 123°
2026-05-07 17:30 58.20398 8.08486 58 ft 16 kts 89°
2026-05-07 17:31 58.20486 8.08625 56 ft 19 kts 33°
2026-05-07 17:31 58.20604 8.08781 59 ft 22 kts 36°
2026-05-07 17:31 58.20758 8.08986 57 ft 31 kts 35°
2026-05-07 17:31 58.20939 8.09226 60 ft 33 kts 34°
2026-05-07 17:32 58.21101 8.09434 54 ft 19 kts 26°
2026-05-07 17:32 58.21149 8.09503 55 ft 4 kts 166°
2026-05-07 17:32 58.21120 8.09461 52 ft 7 kts 217°
2026-05-07 17:32 58.20938 8.09222 60 ft 64 kts 216°
2026-05-07 17:33 58.20393 8.08496 59 ft 126 kts 215°
2026-05-07 17:33 58.19607 8.07450 497 ft 138 kts 215°
2026-05-07 17:33 58.18818 8.06417 1253 ft 139 kts 211°
2026-05-07 17:33 58.17964 8.05530 1941 ft 140 kts 205°
2026-05-07 17:34 58.17014 8.04774 2381 ft 160 kts 198°
2026-05-07 17:34 58.15890 8.04125 2881 ft 180 kts 196°
2026-05-07 17:34 58.14620 8.03419 3449 ft 197 kts 196°
2026-05-07 17:34 58.13240 8.02629 3928 ft 223 kts 196°
2026-05-07 17:35 58.11702 8.01732 4775 ft 236 kts 196°
2026-05-07 17:35 58.10067 8.01220 5789 ft 243 kts 176°
2026-05-07 17:35 58.08443 8.02144 6869 ft 249 kts 150°
2026-05-07 17:35 58.07161 8.04494 7573 ft 271 kts 120°
2026-05-07 17:36 58.06461 8.07868 8506 ft 281 kts 105°
2026-05-07 17:36 58.06342 8.11579 9501 ft 289 kts 82°
2026-05-07 17:36 58.07050 8.15153 10409 ft 298 kts 57°
2026-05-07 17:36 58.08533 8.18066 10821 ft 321 kts 32°
2026-05-07 17:37 58.10571 8.20134 11234 ft 342 kts 25°
2026-05-07 17:37 58.12720 8.22179 11960 ft 350 kts 25°
2026-05-07 17:37 58.14912 8.24269 12795 ft 355 kts 25°
2026-05-07 17:37 58.17123 8.26401 13641 ft 360 kts 25°
2026-05-07 17:38 58.19374 8.28593 14421 ft 364 kts 25°
2026-05-07 17:38 58.21626 8.30804 15358 ft 359 kts 25°
2026-05-07 17:38 58.23826 8.32973 16452 ft 355 kts 25°
2026-05-07 17:38 58.26029 8.35137 17291 ft 358 kts 25°
2026-05-07 17:39 58.28257 8.37323 18077 ft 362 kts 24°
2026-05-07 17:39 58.30507 8.39530 18786 ft 367 kts 24°
2026-05-07 17:39 58.32788 8.41776 19467 ft 371 kts 24°
2026-05-07 17:39 58.35088 8.44049 20142 ft 374 kts 24°
2026-05-07 17:40 58.37411 8.46347 20807 ft 378 kts 24°
2026-05-07 17:40 58.39751 8.48662 21472 ft 381 kts 24°
2026-05-07 17:40 58.42116 8.51006 22136 ft 385 kts 24°
2026-05-07 17:40 58.44503 8.53374 22785 ft 388 kts 23°
2026-05-07 17:41 58.46912 8.55765 23434 ft 392 kts 23°
2026-05-07 17:41 58.49342 8.58181 24018 ft 396 kts 23°
2026-05-07 17:41 58.51796 8.60628 24564 ft 399 kts 23°
2026-05-07 17:41 58.54271 8.63097 24989 ft 402 kts 23°
2026-05-07 17:42 58.56749 8.65577 25099 ft 402 kts 23°
2026-05-07 17:42 58.59188 8.68030 25126 ft 389 kts 23°
2026-05-07 17:42 58.61504 8.70374 25125 ft 374 kts 23°
2026-05-07 17:42 58.63771 8.72666 25124 ft 364 kts 22°
2026-05-07 17:43 58.66004 8.74912 25123 ft 361 kts 22°
2026-05-07 17:43 58.68223 8.77142 25123 ft 360 kts 22°
2026-05-07 17:43 58.70443 8.79372 25121 ft 360 kts 22°
2026-05-07 17:43 58.72660 8.81603 25124 ft 360 kts 22°
2026-05-07 17:44 58.74875 8.83839 25119 ft 360 kts 22°
2026-05-07 17:44 58.77088 8.86078 25124 ft 359 kts 22°
2026-05-07 17:44 58.79301 8.88324 25123 ft 360 kts 22°
2026-05-07 17:44 58.81484 8.90547 25120 ft 360 kts 22°
2026-05-07 17:45 58.83694 8.92805 25119 ft 360 kts 22°
2026-05-07 17:45 58.85908 8.95061 25120 ft 360 kts 22°
2026-05-07 17:45 58.88127 8.97322 25120 ft 360 kts 22°
2026-05-07 17:45 58.90343 8.99586 25121 ft 364 kts 22°
2026-05-07 17:46 58.92639 9.01927 25123 ft 382 kts 22°
2026-05-07 17:46 58.95030 9.04404 25109 ft 392 kts 26°
2026-05-07 17:46 58.97301 9.07249 25116 ft 380 kts 27°
2026-05-07 17:46 58.99487 9.09942 25117 ft 368 kts 26°
2026-05-07 17:47 59.01654 9.12552 25120 ft 364 kts 26°
2026-05-07 17:47 59.03808 9.15123 25117 ft 363 kts 26°
2026-05-07 17:47 59.05947 9.17685 25117 ft 363 kts 26°
2026-05-07 17:47 59.08096 9.20272 25118 ft 363 kts 26°
2026-05-07 17:48 59.10241 9.22868 25119 ft 363 kts 26°
2026-05-07 17:48 59.12384 9.25475 25117 ft 363 kts 26°
2026-05-07 17:48 59.14527 9.28090 25113 ft 363 kts 26°
2026-05-07 17:48 59.16666 9.30700 25103 ft 363 kts 26°
2026-05-07 17:49 59.18808 9.33322 25119 ft 363 kts 26°
2026-05-07 17:49 59.20908 9.35899 25113 ft 363 kts 26°
2026-05-07 17:49 59.23022 9.38493 25108 ft 363 kts 26°
2026-05-07 17:49 59.25165 9.41129 25107 ft 363 kts 26°
2026-05-07 17:50 59.27301 9.43765 25112 ft 363 kts 26°
2026-05-07 17:50 59.29439 9.46412 25102 ft 364 kts 26°
2026-05-07 17:50 59.31576 9.49058 25107 ft 363 kts 26°
2026-05-07 17:50 59.33712 9.51701 25104 ft 364 kts 26°
2026-05-07 17:51 59.35848 9.54349 25101 ft 364 kts 26°
2026-05-07 17:51 59.37954 9.56960 25103 ft 364 kts 26°
2026-05-07 17:51 59.40097 9.59616 25095 ft 364 kts 26°
2026-05-07 17:51 59.42233 9.62269 25099 ft 363 kts 26°
2026-05-07 17:52 59.44394 9.64952 25007 ft 375 kts 26°
2026-05-07 17:52 59.46630 9.67730 24370 ft 378 kts 26°
2026-05-07 17:52 59.48824 9.70486 23893 ft 372 kts 26°
2026-05-07 17:52 59.50982 9.73212 23379 ft 365 kts 26°
2026-05-07 17:53 59.53110 9.75900 22950 ft 361 kts 26°
2026-05-07 17:53 59.55221 9.78560 22525 ft 358 kts 26°
2026-05-07 17:53 59.57311 9.81191 22109 ft 355 kts 26°
2026-05-07 17:53 59.59393 9.83816 21687 ft 353 kts 27°
2026-05-07 17:54 59.61428 9.86387 21274 ft 351 kts 27°
2026-05-07 17:54 59.63475 9.88976 20857 ft 349 kts 27°
2026-05-07 17:54 59.65517 9.91559 20441 ft 347 kts 27°
2026-05-07 17:54 59.67544 9.94122 20029 ft 345 kts 27°
2026-05-07 17:55 59.69564 9.96678 19618 ft 344 kts 27°
2026-05-07 17:55 59.71581 9.99239 19202 ft 343 kts 28°
2026-05-07 17:55 59.73583 10.01791 18802 ft 342 kts 28°
2026-05-07 17:55 59.75579 10.04343 18387 ft 341 kts 28°
2026-05-07 17:56 59.77569 10.06885 17939 ft 339 kts 28°
2026-05-07 17:56 59.79539 10.09403 17532 ft 336 kts 28°
2026-05-07 17:56 59.81497 10.11912 17133 ft 333 kts 28°
2026-05-07 17:56 59.83436 10.14405 16731 ft 331 kts 29°
2026-05-07 17:57 59.85360 10.16886 16340 ft 328 kts 29°
2026-05-07 17:57 59.86627 10.18524 16070 ft 327 kts 29°
2026-05-07 17:57 59.89165 10.21795 15556 ft 324 kts 29°
2026-05-07 17:57 59.91050 10.24222 15174 ft 322 kts 30°
2026-05-07 17:58 59.92923 10.26638 14789 ft 320 kts 30°
2026-05-07 17:58 59.94787 10.29045 14408 ft 318 kts 30°
2026-05-07 17:58 59.96636 10.31436 14031 ft 316 kts 30°
2026-05-07 17:58 59.98482 10.33822 13618 ft 315 kts 30°
2026-05-07 17:59 60.00137 10.35969 13270 ft 316 kts 30°
2026-05-07 17:59 60.01249 10.37424 13049 ft 311 kts 30°
2026-05-07 17:59 60.03050 10.39778 12673 ft 308 kts 30°
2026-05-07 17:59 60.04829 10.42099 12348 ft 304 kts 30°
2026-05-07 18:00 60.06599 10.44406 11985 ft 302 kts 30°
2026-05-07 18:00 60.08333 10.46663 11621 ft 300 kts 30°
2026-05-07 18:00 60.10084 10.48945 11191 ft 301 kts 31°
2026-05-07 18:00 60.11839 10.51236 10817 ft 299 kts 31°
2026-05-07 18:01 60.13575 10.53514 10452 ft 297 kts 31°
2026-05-07 18:01 60.15302 10.55782 10090 ft 296 kts 31°
2026-05-07 18:01 60.17039 10.58062 9698 ft 294 kts 31°
2026-05-07 18:01 60.18719 10.60280 9333 ft 291 kts 31°
2026-05-07 18:02 60.22079 10.64726 8621 ft 286 kts 32°
2026-05-07 18:02 60.23736 10.66919 8266 ft 284 kts 32°
2026-05-07 18:02 60.25379 10.69088 7916 ft 282 kts 32°
2026-05-07 18:03 60.27019 10.71257 7567 ft 281 kts 32°
2026-05-07 18:03 60.28642 10.73414 7215 ft 279 kts 32°
2026-05-07 18:03 60.30253 10.75559 6862 ft 277 kts 32°
2026-05-07 18:03 60.31856 10.77690 6517 ft 275 kts 33°
2026-05-07 18:04 60.33453 10.79818 6153 ft 274 kts 33°
2026-05-07 18:04 60.35025 10.81912 5961 ft 267 kts 33°
2026-05-07 18:04 60.36541 10.83950 5824 ft 257 kts 35°
2026-05-07 18:04 60.37756 10.86491 5695 ft 248 kts 58°
2026-05-07 18:05 60.38391 10.89636 5477 ft 240 kts 80°
2026-05-07 18:05 60.38431 10.92967 5141 ft 238 kts 97°
2026-05-07 18:05 60.38087 10.96193 4818 ft 233 kts 109°
2026-05-07 18:05 60.37454 10.99165 4485 ft 228 kts 120°
2026-05-07 18:06 60.36585 11.01741 4178 ft 215 kts 131°
2026-05-07 18:06 60.35566 11.03818 3876 ft 202 kts 141°
2026-05-07 18:06 60.34527 11.05543 3632 ft 188 kts 141°
2026-05-07 18:06 60.33563 11.07156 3353 ft 173 kts 141°
2026-05-07 18:07 60.32708 11.08592 3124 ft 148 kts 141°
2026-05-07 18:07 60.31963 11.09848 2921 ft 134 kts 141°
2026-05-07 18:07 60.31246 11.10987 2741 ft 129 kts 147°
2026-05-07 18:07 60.30462 11.11845 2564 ft 127 kts 157°
2026-05-07 18:08 60.29628 11.12408 2393 ft 126 kts 167°
2026-05-07 18:08 60.28762 11.12679 2220 ft 126 kts 176°
2026-05-07 18:08 60.27892 11.12646 2017 ft 125 kts 187°
2026-05-07 18:08 60.27038 11.12316 1856 ft 125 kts 195°
2026-05-07 18:09 60.26200 11.11835 1678 ft 125 kts 197°
2026-05-07 18:09 60.25361 11.11335 1490 ft 126 kts 197°
2026-05-07 18:09 60.24521 11.10843 1308 ft 126 kts 197°
2026-05-07 18:09 60.23680 11.10352 1123 ft 124 kts 197°
2026-05-07 18:10 60.22878 11.09908 914 ft 124 kts 196°
2026-05-07 18:10 60.22026 11.09412 825 ft 132 kts 197°
2026-05-07 18:10 60.21439 11.09072 718 ft 131 kts 197°
2026-05-07 18:10 60.20440 11.08491 678 ft 84 kts 196°
2026-05-07 18:11 60.20161 11.08331 676 ft 47 kts 196°
2026-05-07 18:11 60.19952 11.08305 675 ft 18 kts 160°
2026-05-07 18:11 60.19890 11.08461 676 ft 9 kts 102°
2026-05-07 18:11 60.19884 11.08516 677 ft 2 kts 103°
2026-05-07 18:12 60.19876 11.08568 679 ft 5 kts 107°
2026-05-07 18:12 60.19850 11.08737 677 ft 17 kts 107°
2026-05-07 18:12 60.19814 11.08998 681 ft 20 kts 109°
2026-05-07 18:12 60.19773 11.09270 683 ft 21 kts 107°
2026-05-07 18:13 60.19730 11.09574 683 ft 24 kts 105°
2026-05-07 18:13 60.19691 11.09827 681 ft 19 kts 106°
2026-05-07 18:13 60.19669 11.09980 685 ft 3 kts 107°
2026-05-07 18:13 60.19669 11.09983 685 ft 0 kts 107°